| time (UTC) | temp C | wind direction | speed KPH | gust KPH | rain 1hr cm | rain 24hr cm | rain mn cm | humidity % | barometer mb |
| 20260502201555 | 8 | 217 | 0.0 | 0.0 | 0.00 | 0.15 | 0.15 | 58 | 1009.3 |
| 20260502200052 | 8 | 232 | 0.0 | 0.0 | 0.00 | 0.15 | 0.15 | 61 | 1009.4 |
| 20260502194534 | 8 | 328 | 0.0 | 0.0 | 0.00 | 0.15 | 0.15 | 61 | 1009.5 |
| 20260502193035 | 8 | 230 | 0.0 | 0.0 | 0.00 | 0.15 | 0.15 | 61 | 1009.7 |
| 20260502191506 | 8 | 265 | 0.0 | 0.0 | 0.00 | 0.15 | 0.15 | 66 | 1009.9 |
| 20260502190024 | 8 | 257 | 0.0 | 0.0 | 0.00 | 0.15 | 0.15 | 68 | 1010.1 |
| 20260502184559 | 8 | 308 | 0.0 | 0.0 | 0.00 | 0.15 | 0.15 | 68 | 1010.1 |
| 20260502183032 | 8 | 252 | 0.0 | 0.0 | 0.00 | 0.15 | 0.15 | 68 | 1010.1 |
| 20260502181509 | 8 | 338 | 0.0 | 0.0 | 0.00 | 0.15 | 0.15 | 71 | 1010.3 |
| 20260502163037 | 7 | 298 | 0.0 | 0.0 | 0.00 | 0.15 | 0.15 | 79 | 1010.8 |
| 20260502161509 | 7 | 265 | 0.0 | 0.0 | 0.00 | 0.15 | 0.15 | 80 | 1010.7 |
| 20260502160104 | 7 | 301 | 0.0 | 0.0 | 0.00 | 0.15 | 0.15 | 81 | 1010.8 |
| 20260502151604 | 6 | 312 | 0.0 | 0.0 | 0.00 | 0.15 | 0.15 | 84 | 1011.0 |
| 20260502123118 | 6 | 238 | 0.0 | 0.0 | 0.00 | 0.15 | 0.15 | 94 | 1010.8 |
| 20260502121552 | 6 | 242 | 0.0 | 0.0 | 0.00 | 0.15 | 0.15 | 94 | 1010.8 |
| 20260502120108 | 6 | 242 | 0.0 | 0.0 | 0.00 | 0.15 | 0.15 | 94 | 1010.7 |
| 20260502114559 | 5 | 242 | 0.0 | 0.0 | 0.00 | 0.15 | 0.15 | 95 | 1010.6 |
| 20260502113041 | 5 | 242 | 0.0 | 0.0 | 0.00 | 0.15 | 0.15 | 95 | 1010.7 |
| 20260502111546 | 5 | 242 | 0.0 | 0.0 | 0.00 | 0.15 | 0.15 | 95 | 1010.8 |
| 20260502110016 | 5 | 242 | 0.0 | 0.0 | 0.00 | 0.15 | 0.15 | 95 | 1010.5 |
| 20260502104514 | 5 | 242 | 0.0 | 0.0 | 0.00 | 0.15 | 0.15 | 95 | 1010.5 |
| 20260502103101 | 5 | 242 | 0.0 | 0.0 | 0.00 | 0.15 | 0.15 | 95 | 1010.7 |
| 20260502101605 | 5 | 242 | 0.0 | 0.0 | 0.00 | 0.15 | 0.15 | 95 | 1010.5 |
| 20260502100108 | 5 | 242 | 0.0 | 0.0 | 0.00 | 0.15 | 0.15 | 94 | 1010.3 |
| 20260502071512 | 5 | 242 | 0.0 | 0.0 | 0.03 | 0.08 | 0.08 | 94 | 1010.8 |
| 20260502070113 | 5 | 243 | 0.0 | 0.0 | 0.00 | 0.05 | 0.05 | 95 | 1010.7 |
| 20260502064549 | 5 | 242 | 0.0 | 0.0 | 0.00 | 0.05 | 0.05 | 94 | 1010.9 |
| 20260502063017 | 5 | 243 | 0.0 | 0.0 | 0.00 | 0.05 | 0.05 | 94 | 1011.0 |
| 20260502061524 | 5 | 242 | 0.0 | 0.0 | 0.03 | 0.05 | 0.05 | 93 | 1011.0 |
| 20260502060105 | 5 | 242 | 0.0 | 0.0 | 0.03 | 0.05 | 0.05 | 93 | 1011.3 |
| 20260502054608 | 5 | 242 | 0.0 | 0.0 | 0.05 | 0.05 | 0.05 | 92 | 1011.4 |
| 20260502053043 | 5 | 242 | 0.0 | 0.0 | 0.05 | 0.05 | 0.05 | 91 | 1011.5 |
| 20260502051505 | 5 | 242 | 0.0 | 0.0 | 0.03 | 0.03 | 0.03 | 89 | 1012.0 |
| 20260502044515 | 6 | 243 | 0.0 | 0.0 | 0.00 | 0.00 | 0.00 | 80 | 1011.5 |
| 20260502043013 | 6 | 221 | 0.0 | 0.0 | 0.00 | 0.00 | 0.00 | 77 | 1011.4 |
| 20260502041557 | 6 | 203 | 0.0 | 0.0 | 0.00 | 0.00 | 0.00 | 78 | 1011.3 |
| 20260502040047 | 6 | 192 | 0.0 | 0.0 | 0.00 | 0.00 | 0.00 | 77 | 1011.4 |
| 20260502034508 | 6 | 136 | 0.0 | 0.0 | 0.00 | 0.00 | 0.00 | 78 | 1011.2 |
| 20260502033058 | 6 | 136 | 0.0 | 0.0 | 0.00 | 0.00 | 0.00 | 78 | 1011.2 |
| 20260502031536 | 6 | 136 | 0.0 | 0.0 | 0.00 | 0.00 | 0.00 | 76 | 1011.1 |
| 20260502030018 | 6 | 136 | 0.0 | 0.0 | 0.00 | 0.00 | 0.00 | 74 | 1011.0 |
| 20260502024546 | 6 | 136 | 0.0 | 0.0 | 0.00 | 0.00 | 0.00 | 74 | 1011.0 |
| 20260502023056 | 6 | 136 | 0.0 | 0.0 | 0.00 | 0.00 | 0.00 | 74 | 1011.2 |
| 20260502021536 | 6 | 136 | 0.0 | 0.0 | 0.00 | 0.00 | 0.00 | 73 | 1011.1 |
| 20260502020111 | 7 | 136 | 0.0 | 0.0 | 0.00 | 0.00 | 0.00 | 68 | 1011.1 |
| 20260502014549 | 8 | 136 | 0.0 | 0.0 | 0.00 | 0.00 | 0.00 | 69 | 1011.1 |
| 20260502013040 | 7 | 136 | 0.0 | 0.0 | 0.00 | 0.00 | 0.00 | 67 | 1011.1 |
| 20260502011544 | 7 | 211 | 0.0 | 0.0 | 0.00 | 0.00 | 0.00 | 68 | 1011.0 |
| 20260502010043 | 7 | 205 | 0.0 | 0.0 | 0.00 | 0.00 | 0.00 | 67 | 1011.0 |
| 20260502004540 | 8 | 205 | 0.0 | 0.0 | 0.00 | 0.00 | 0.00 | 63 | 1011.0 |
| 20260502003104 | 8 | 205 | 0.0 | 0.0 | 0.00 | 0.00 | 0.00 | 66 | 1010.8 |
| 20260502001557 | 8 | 205 | 0.0 | 0.0 | 0.00 | 0.00 | 0.00 | 61 | 1010.6 |
| 20260502000034 | 8 | 207 | 0.0 | 0.0 | 0.00 | 0.00 | 0.00 | 57 | 1010.4 |
| 20260501234508 | 8 | 192 | 0.0 | 0.0 | 0.00 | 0.00 | 0.00 | 58 | 1010.2 |
| 20260501233104 | 9 | 246 | 0.0 | 0.0 | 0.00 | 0.00 | 0.00 | 55 | 1009.8 |
| 20260501231601 | 10 | 252 | 0.0 | 0.0 | 0.00 | 0.00 | 0.00 | 51 | 1009.6 |
| 20260501230056 | 10 | 205 | 0.0 | 0.0 | 0.00 | 0.00 | 0.00 | 48 | 1009.4 |
| 20260501224545 | 10 | 313 | 0.0 | 0.0 | 0.00 | 0.00 | 0.00 | 45 | 1009.3 |
| 20260501223046 | 11 | 250 | 0.0 | 0.0 | 0.00 | 0.00 | 0.00 | 45 | 1009.2 |
| 20260501221510 | 11 | 294 | 0.0 | 0.0 | 0.00 | 0.00 | 0.00 | 44 | 1009.1 |
| 20260501214547 | 11 | 223 | 0.0 | 0.0 | 0.00 | 0.00 | 0.00 | 44 | 1009.1 |
| 20260501213037 | 11 | 269 | 0.0 | 0.0 | 0.00 | 0.00 | 0.00 | 45 | 1009.1 |
| 20260501211508 | 11 | 302 | 0.0 | 0.0 | 0.00 | 0.00 | 0.00 | 48 | 1009.1 |
| 20260501210058 | 11 | 292 | 0.0 | 0.0 | 0.00 | 0.00 | 0.00 | 46 | 1009.3 |
| 20260501204555 | 11 | 235 | 0.0 | 0.0 | 0.00 | 0.00 | 0.00 | 46 | 1009.1 |
| 20260501203057 | 11 | 157 | 0.0 | 0.0 | 0.00 | 0.00 | 0.00 | 46 | 1009.0 |